Year,Month,Day,Hour,Minute,Value (Times are PST for temperature in C)
2011,07,24,00,00,13.80
2011,07,24,00,01,13.80
2011,07,24,00,02,13.80
2011,07,24,00,03,13.80
2011,07,24,00,04,13.80
2011,07,24,00,05,13.70
2011,07,24,00,06,13.70
2011,07,24,00,07,13.70
2011,07,24,00,08,13.70
2011,07,24,00,09,13.70
2011,07,24,00,10,13.70
2011,07,24,00,11,13.70
2011,07,24,00,12,13.70
2011,07,24,00,13,13.60
2011,07,24,00,14,13.60
2011,07,24,00,15,13.60
2011,07,24,00,16,13.60
2011,07,24,00,17,13.60
2011,07,24,00,18,13.60
2011,07,24,00,19,13.60
2011,07,24,00,20,13.50
2011,07,24,00,21,13.50
2011,07,24,00,22,13.50
2011,07,24,00,23,13.50
2011,07,24,00,24,13.50
2011,07,24,00,25,13.50
2011,07,24,00,26,13.50
2011,07,24,00,27,13.50
2011,07,24,00,28,13.50
2011,07,24,00,29,13.50
2011,07,24,00,30,13.40
2011,07,24,00,31,13.40
2011,07,24,00,32,13.40
2011,07,24,00,33,13.40
2011,07,24,00,34,13.40
2011,07,24,00,35,13.30
2011,07,24,00,36,13.30
2011,07,24,00,37,13.30
2011,07,24,00,38,13.30
2011,07,24,00,39,13.30
2011,07,24,00,40,13.30
2011,07,24,00,41,13.30
2011,07,24,00,42,13.30
2011,07,24,00,43,13.30
2011,07,24,00,44,13.30
2011,07,24,00,45,13.30
2011,07,24,00,46,13.30
2011,07,24,00,47,13.20
2011,07,24,00,48,13.20
2011,07,24,00,49,13.20
2011,07,24,00,50,13.20
2011,07,24,00,51,13.10
2011,07,24,00,52,13.10
2011,07,24,00,53,13.10
2011,07,24,00,54,13.10
2011,07,24,00,55,13.10
2011,07,24,00,56,13.00
2011,07,24,00,57,13.00
2011,07,24,00,58,13.00
2011,07,24,00,59,13.00
2011,07,24,01,00,12.90
2011,07,24,01,01,12.90
2011,07,24,01,02,12.90
2011,07,24,01,03,12.90
2011,07,24,01,04,12.90
2011,07,24,01,05,12.80
2011,07,24,01,06,12.80
2011,07,24,01,07,12.80
2011,07,24,01,08,12.80
2011,07,24,01,09,12.80
2011,07,24,01,10,12.80
2011,07,24,01,11,12.80
2011,07,24,01,12,12.70
2011,07,24,01,13,12.70
2011,07,24,01,14,12.70
2011,07,24,01,15,12.70
2011,07,24,01,16,12.60
2011,07,24,01,17,12.60
2011,07,24,01,18,12.60
2011,07,24,01,19,12.60
2011,07,24,01,20,12.60
2011,07,24,01,21,12.50
2011,07,24,01,22,12.50
2011,07,24,01,23,12.50
2011,07,24,01,24,12.50
2011,07,24,01,25,12.50
2011,07,24,01,26,12.50
2011,07,24,01,27,12.50
2011,07,24,01,28,12.50
2011,07,24,01,29,12.50
2011,07,24,01,30,12.50
2011,07,24,01,31,12.50
2011,07,24,01,32,12.50
2011,07,24,01,33,12.50
2011,07,24,01,34,12.40
2011,07,24,01,35,12.40
2011,07,24,01,36,12.40
2011,07,24,01,37,12.40
2011,07,24,01,38,12.40
2011,07,24,01,39,12.40
2011,07,24,01,40,12.30
2011,07,24,01,41,12.30
2011,07,24,01,42,12.30
2011,07,24,01,43,12.30
2011,07,24,01,44,12.30
2011,07,24,01,45,12.30
2011,07,24,01,46,12.30
2011,07,24,01,47,12.30
2011,07,24,01,48,12.30
2011,07,24,01,49,12.30
2011,07,24,01,50,12.30
2011,07,24,01,51,12.30
2011,07,24,01,52,12.30
2011,07,24,01,53,12.30
2011,07,24,01,54,12.30
2011,07,24,01,55,12.30
2011,07,24,01,56,12.30
2011,07,24,01,57,12.30
2011,07,24,01,58,12.30
2011,07,24,01,59,12.30
2011,07,24,02,00,12.30
2011,07,24,02,01,12.30
2011,07,24,02,02,12.30
2011,07,24,02,03,12.30
2011,07,24,02,04,12.30
2011,07,24,02,05,12.30
2011,07,24,02,06,12.30
2011,07,24,02,07,12.30
2011,07,24,02,08,12.30
2011,07,24,02,09,12.30
2011,07,24,02,10,12.30
2011,07,24,02,11,12.30
2011,07,24,02,12,12.20
2011,07,24,02,13,12.20
2011,07,24,02,14,12.20
2011,07,24,02,15,12.20
2011,07,24,02,16,12.20
2011,07,24,02,17,12.10
2011,07,24,02,18,12.10
2011,07,24,02,19,12.10
2011,07,24,02,20,12.10
2011,07,24,02,21,12.10
2011,07,24,02,22,12.10
2011,07,24,02,23,12.10
2011,07,24,02,24,12.10
2011,07,24,02,25,12.10
2011,07,24,02,26,12.10
2011,07,24,02,27,12.10
2011,07,24,02,28,12.10
2011,07,24,02,29,12.10
2011,07,24,02,30,12.10
2011,07,24,02,31,12.20
2011,07,24,02,32,12.20
2011,07,24,02,33,12.20
2011,07,24,02,34,12.20
2011,07,24,02,35,12.20
2011,07,24,02,36,12.20
2011,07,24,02,37,12.20
2011,07,24,02,38,12.20
2011,07,24,02,39,12.20
2011,07,24,02,40,12.20
2011,07,24,02,41,12.10
2011,07,24,02,42,12.10
2011,07,24,02,43,12.10
2011,07,24,02,44,12.10
2011,07,24,02,45,12.10
2011,07,24,02,46,12.10
2011,07,24,02,47,12.00
2011,07,24,02,48,12.00
2011,07,24,02,49,12.00
2011,07,24,02,50,12.00
2011,07,24,02,51,12.00
2011,07,24,02,52,12.00
2011,07,24,02,53,11.90
2011,07,24,02,54,11.90
2011,07,24,02,55,11.90
2011,07,24,02,56,11.90
2011,07,24,02,57,11.80
2011,07,24,02,58,11.80
2011,07,24,02,59,11.80
2011,07,24,03,00,11.80
2011,07,24,03,01,11.80
2011,07,24,03,02,11.80
2011,07,24,03,03,11.80
2011,07,24,03,04,11.80
2011,07,24,03,05,11.70
2011,07,24,03,06,11.70
2011,07,24,03,07,11.70
2011,07,24,03,08,11.70
2011,07,24,03,09,11.60
2011,07,24,03,10,11.60
2011,07,24,03,11,11.60
2011,07,24,03,12,11.60
2011,07,24,03,13,11.60
2011,07,24,03,14,11.60
2011,07,24,03,15,11.60
2011,07,24,03,16,11.60
2011,07,24,03,17,11.60
2011,07,24,03,18,11.60
2011,07,24,03,19,11.60
2011,07,24,03,20,11.60
2011,07,24,03,21,11.50
2011,07,24,03,22,11.40
2011,07,24,03,23,11.40
2011,07,24,03,24,11.50
2011,07,24,03,25,11.50
2011,07,24,03,26,11.40
2011,07,24,03,27,11.40
2011,07,24,03,28,11.40
2011,07,24,03,29,11.40
2011,07,24,03,30,11.40
2011,07,24,03,31,11.40
2011,07,24,03,32,11.40
2011,07,24,03,33,11.40
2011,07,24,03,34,11.40
2011,07,24,03,35,11.40
2011,07,24,03,36,11.40
2011,07,24,03,37,11.40
2011,07,24,03,38,11.40
2011,07,24,03,39,11.40
2011,07,24,03,40,11.40
2011,07,24,03,41,11.40
2011,07,24,03,42,11.40
2011,07,24,03,43,11.40
2011,07,24,03,44,11.40
2011,07,24,03,45,11.40
2011,07,24,03,46,11.40
2011,07,24,03,47,11.40
2011,07,24,03,48,11.40
2011,07,24,03,49,11.40
2011,07,24,03,50,11.40
2011,07,24,03,51,11.40
2011,07,24,03,52,11.40
2011,07,24,03,53,11.40
2011,07,24,03,54,11.50
2011,07,24,03,55,11.60
2011,07,24,03,56,11.60
2011,07,24,03,57,11.60
2011,07,24,03,58,11.60
2011,07,24,03,59,11.60
2011,07,24,04,00,11.60
2011,07,24,04,01,11.60
2011,07,24,04,02,11.60
2011,07,24,04,03,11.60
2011,07,24,04,04,11.70
2011,07,24,04,05,11.70
2011,07,24,04,06,11.70
2011,07,24,04,07,11.70
2011,07,24,04,08,11.70
2011,07,24,04,09,11.70
2011,07,24,04,10,11.70
2011,07,24,04,11,11.70
2011,07,24,04,12,11.60
2011,07,24,04,13,11.60
2011,07,24,04,14,11.60
2011,07,24,04,15,11.60
2011,07,24,04,16,11.60
2011,07,24,04,17,11.60
2011,07,24,04,18,11.60
2011,07,24,04,19,11.60
2011,07,24,04,20,11.60
2011,07,24,04,21,11.60
2011,07,24,04,22,11.60
2011,07,24,04,23,11.60
2011,07,24,04,24,11.60
2011,07,24,04,25,11.60
2011,07,24,04,26,11.60
2011,07,24,04,27,11.50
2011,07,24,04,28,11.40
2011,07,24,04,29,11.40
2011,07,24,04,30,11.40
2011,07,24,04,31,11.40
2011,07,24,04,32,11.40
2011,07,24,04,33,11.40
2011,07,24,04,34,11.40
2011,07,24,04,35,11.40
2011,07,24,04,36,11.40
2011,07,24,04,37,11.40
2011,07,24,04,38,11.40
2011,07,24,04,39,11.40
2011,07,24,04,40,11.40
2011,07,24,04,41,11.40
2011,07,24,04,42,11.40
2011,07,24,04,43,11.40
2011,07,24,04,44,11.30
2011,07,24,04,45,11.30
2011,07,24,04,46,11.30
2011,07,24,04,47,11.30
2011,07,24,04,48,11.30
2011,07,24,04,49,11.30
2011,07,24,04,50,11.30
2011,07,24,04,51,11.30
2011,07,24,04,52,11.30
2011,07,24,04,53,11.30
2011,07,24,04,54,11.30
2011,07,24,04,55,11.30
2011,07,24,04,56,11.30
2011,07,24,04,57,11.30
2011,07,24,04,58,11.30
2011,07,24,04,59,11.30
2011,07,24,05,00,11.30
2011,07,24,05,01,11.30
2011,07,24,05,02,11.30
2011,07,24,05,03,11.30
2011,07,24,05,04,11.30
2011,07,24,05,05,11.30
2011,07,24,05,06,11.30
2011,07,24,05,07,11.30
2011,07,24,05,08,11.20
2011,07,24,05,09,11.20
2011,07,24,05,10,11.20
2011,07,24,05,11,11.20
2011,07,24,05,12,11.20
2011,07,24,05,13,11.20
2011,07,24,05,14,11.20
2011,07,24,05,15,11.20
2011,07,24,05,16,11.20
2011,07,24,05,17,11.20
2011,07,24,05,18,11.20
2011,07,24,05,19,11.20
2011,07,24,05,20,11.20
2011,07,24,05,21,11.30
2011,07,24,05,22,11.30
2011,07,24,05,23,11.30
2011,07,24,05,24,11.30
2011,07,24,05,25,11.30
2011,07,24,05,26,11.30
2011,07,24,05,27,11.40
2011,07,24,05,28,11.40
2011,07,24,05,29,11.40
2011,07,24,05,30,11.40
2011,07,24,05,31,11.50
2011,07,24,05,32,11.60
2011,07,24,05,33,11.60
2011,07,24,05,34,11.60
2011,07,24,05,35,11.60
2011,07,24,05,36,11.70
2011,07,24,05,37,11.70
2011,07,24,05,38,11.80
2011,07,24,05,39,11.80
2011,07,24,05,40,11.80
2011,07,24,05,41,11.90
2011,07,24,05,42,12.00
2011,07,24,05,43,12.00
2011,07,24,05,44,12.10
2011,07,24,05,45,12.10
2011,07,24,05,46,12.20
2011,07,24,05,47,12.20
2011,07,24,05,48,12.20
2011,07,24,05,49,12.30
2011,07,24,05,50,12.30
2011,07,24,05,51,12.30
2011,07,24,05,52,12.30
2011,07,24,05,53,12.30
2011,07,24,05,54,12.30
2011,07,24,05,55,12.30
2011,07,24,05,56,12.40
2011,07,24,05,57,12.40
2011,07,24,05,58,12.40
2011,07,24,05,59,12.40
2011,07,24,06,00,12.50
2011,07,24,06,01,12.50
2011,07,24,06,02,12.60
2011,07,24,06,03,12.60
2011,07,24,06,04,12.60
2011,07,24,06,05,12.70
2011,07,24,06,06,12.70
2011,07,24,06,07,12.70
2011,07,24,06,08,12.70
2011,07,24,06,09,12.80
2011,07,24,06,10,12.80
2011,07,24,06,11,12.80
2011,07,24,06,12,12.80
2011,07,24,06,13,12.90
2011,07,24,06,14,12.90
2011,07,24,06,15,13.00
2011,07,24,06,16,13.00
2011,07,24,06,17,13.10
2011,07,24,06,18,13.10
2011,07,24,06,19,13.20
2011,07,24,06,20,13.20
2011,07,24,06,21,13.20
2011,07,24,06,22,13.20
2011,07,24,06,23,13.20
2011,07,24,06,24,13.20
2011,07,24,06,25,13.20
2011,07,24,06,26,13.20
2011,07,24,06,27,13.20
2011,07,24,06,28,13.20
2011,07,24,06,29,13.20
2011,07,24,06,30,13.30
2011,07,24,06,31,13.30
2011,07,24,06,32,13.30
2011,07,24,06,33,13.30
2011,07,24,06,34,13.40
2011,07,24,06,35,13.50
2011,07,24,06,36,13.50
2011,07,24,06,37,13.60
2011,07,24,06,38,13.70
2011,07,24,06,39,13.70
2011,07,24,06,40,13.70
2011,07,24,06,41,13.80
2011,07,24,06,42,13.90
2011,07,24,06,43,13.90
2011,07,24,06,44,14.00
2011,07,24,06,45,14.10
2011,07,24,06,46,14.20
2011,07,24,06,47,14.20
2011,07,24,06,48,14.30
2011,07,24,06,49,14.40
2011,07,24,06,50,14.50
2011,07,24,06,51,14.60
2011,07,24,06,52,14.70
2011,07,24,06,53,14.80
2011,07,24,06,54,14.90
2011,07,24,06,55,15.00
2011,07,24,06,56,15.10
2011,07,24,06,57,15.20
2011,07,24,06,58,15.30
2011,07,24,06,59,15.40
2011,07,24,07,00,15.50
2011,07,24,07,01,15.60
2011,07,24,07,02,15.70
2011,07,24,07,03,15.70
2011,07,24,07,04,15.80
2011,07,24,07,05,15.90
2011,07,24,07,06,16.00
2011,07,24,07,07,16.10
2011,07,24,07,08,16.10
2011,07,24,07,09,16.20
2011,07,24,07,10,16.30
2011,07,24,07,11,16.30
2011,07,24,07,12,16.40
2011,07,24,07,13,16.40
2011,07,24,07,14,16.50
2011,07,24,07,15,16.70
2011,07,24,07,16,16.80
2011,07,24,07,17,16.90
2011,07,24,07,18,17.00
2011,07,24,07,19,17.00
2011,07,24,07,20,17.10
2011,07,24,07,21,17.20
2011,07,24,07,22,17.30
2011,07,24,07,23,17.30
2011,07,24,07,24,17.40
2011,07,24,07,25,17.50
2011,07,24,07,26,17.50
2011,07,24,07,27,17.60
2011,07,24,07,28,17.70
2011,07,24,07,29,17.80
2011,07,24,07,30,17.80
2011,07,24,07,31,17.90
2011,07,24,07,32,17.90
2011,07,24,07,33,18.00
2011,07,24,07,34,18.10
2011,07,24,07,35,18.20
2011,07,24,07,36,18.20
2011,07,24,07,37,18.30
2011,07,24,07,38,18.30
2011,07,24,07,39,18.40
2011,07,24,07,40,18.40
2011,07,24,07,41,18.40
2011,07,24,07,42,18.40
2011,07,24,07,43,18.50
2011,07,24,07,44,18.60
2011,07,24,07,45,18.60
2011,07,24,07,46,18.70
2011,07,24,07,47,18.70
2011,07,24,07,48,18.80
2011,07,24,07,49,18.80
2011,07,24,07,50,18.80
2011,07,24,07,51,18.90
2011,07,24,07,52,18.90
2011,07,24,07,53,18.90
2011,07,24,07,54,18.90
2011,07,24,07,55,18.90
2011,07,24,07,56,18.90
2011,07,24,07,57,18.90
2011,07,24,07,58,18.90
2011,07,24,07,59,18.90
2011,07,24,08,00,18.90
2011,07,24,08,01,18.90
2011,07,24,08,02,18.90
2011,07,24,08,03,18.90
2011,07,24,08,04,18.90
2011,07,24,08,05,18.90
2011,07,24,08,06,19.00
2011,07,24,08,07,19.10
2011,07,24,08,08,19.10
2011,07,24,08,09,19.10
2011,07,24,08,10,19.10
2011,07,24,08,11,19.10
2011,07,24,08,12,19.10
2011,07,24,08,13,19.20
2011,07,24,08,14,19.20
2011,07,24,08,15,19.10
2011,07,24,08,16,19.10
2011,07,24,08,17,19.20
2011,07,24,08,18,19.20
2011,07,24,08,19,19.30
2011,07,24,08,20,19.30
2011,07,24,08,21,19.30
2011,07,24,08,22,19.40
2011,07,24,08,23,19.40
2011,07,24,08,24,19.40
2011,07,24,08,25,19.40
2011,07,24,08,26,19.50
2011,07,24,08,27,19.50
2011,07,24,08,28,19.50
2011,07,24,08,29,19.50
2011,07,24,08,30,19.50
2011,07,24,08,31,19.60
2011,07,24,08,32,19.60
2011,07,24,08,33,19.60
2011,07,24,08,34,19.70
2011,07,24,08,35,19.70
2011,07,24,08,36,19.80
2011,07,24,08,37,19.80
2011,07,24,08,38,19.80
2011,07,24,08,39,19.80
2011,07,24,08,40,19.80
2011,07,24,08,41,19.80
2011,07,24,08,42,19.80
2011,07,24,08,43,19.80
2011,07,24,08,44,19.80
2011,07,24,08,45,19.80
2011,07,24,08,46,19.80
2011,07,24,08,47,19.90
2011,07,24,08,48,19.90
2011,07,24,08,49,19.90
2011,07,24,08,50,19.90
2011,07,24,08,51,19.90
2011,07,24,08,52,19.90
2011,07,24,08,53,19.90
2011,07,24,08,54,19.90
2011,07,24,08,55,19.90
2011,07,24,08,56,19.90
2011,07,24,08,57,20.00
2011,07,24,08,58,20.10
2011,07,24,08,59,20.10
2011,07,24,09,00,20.10
2011,07,24,09,01,20.20
2011,07,24,09,02,20.20
2011,07,24,09,03,20.20
2011,07,24,09,04,20.20
2011,07,24,09,05,20.20
2011,07,24,09,06,20.20
2011,07,24,09,07,20.20
2011,07,24,09,08,20.20
2011,07,24,09,09,20.20
2011,07,24,09,10,20.20
2011,07,24,09,11,20.20
2011,07,24,09,12,20.20
2011,07,24,09,13,20.20
2011,07,24,09,14,20.20
2011,07,24,09,15,20.20
2011,07,24,09,16,20.20
2011,07,24,09,17,20.20
2011,07,24,09,18,20.20
2011,07,24,09,19,20.20
2011,07,24,09,20,20.30
2011,07,24,09,21,20.30
2011,07,24,09,22,20.30
2011,07,24,09,23,20.30
2011,07,24,09,24,20.20
2011,07,24,09,25,20.20
2011,07,24,09,26,20.20
2011,07,24,09,27,20.20
2011,07,24,09,28,20.20
2011,07,24,09,29,20.20
2011,07,24,09,30,20.20
2011,07,24,09,31,20.20
2011,07,24,09,32,20.20
2011,07,24,09,33,20.20
2011,07,24,09,34,20.20
2011,07,24,09,35,20.20
2011,07,24,09,36,20.20
2011,07,24,09,37,20.20
2011,07,24,09,38,20.20
2011,07,24,09,39,20.20
2011,07,24,09,40,20.20
2011,07,24,09,41,20.20
2011,07,24,09,42,20.20
2011,07,24,09,43,20.20
2011,07,24,09,44,20.20
2011,07,24,09,45,20.20
2011,07,24,09,46,20.20
2011,07,24,09,47,20.30
2011,07,24,09,48,20.30
2011,07,24,09,49,20.40
2011,07,24,09,50,20.40
2011,07,24,09,51,20.50
2011,07,24,09,52,20.50
2011,07,24,09,53,20.60
2011,07,24,09,54,20.60
2011,07,24,09,55,20.60
2011,07,24,09,56,20.60
2011,07,24,09,57,20.60
2011,07,24,09,58,20.60
2011,07,24,09,59,20.60
2011,07,24,10,00,20.70
2011,07,24,10,01,20.70
2011,07,24,10,02,20.70
2011,07,24,10,03,20.80
2011,07,24,10,04,20.80
2011,07,24,10,05,20.90
2011,07,24,10,06,21.00
2011,07,24,10,07,21.10
2011,07,24,10,08,21.10
2011,07,24,10,09,21.10
2011,07,24,10,10,21.10
2011,07,24,10,11,21.10
2011,07,24,10,12,21.10
2011,07,24,10,13,21.10
2011,07,24,10,14,21.00
2011,07,24,10,15,21.00
2011,07,24,10,16,21.00
2011,07,24,10,17,21.10
2011,07,24,10,18,21.00
2011,07,24,10,19,21.00
2011,07,24,10,20,21.10
2011,07,24,10,21,21.10
2011,07,24,10,22,21.20
2011,07,24,10,23,21.30
2011,07,24,10,24,21.40
2011,07,24,10,25,21.50
2011,07,24,10,26,21.60
2011,07,24,10,27,21.60
2011,07,24,10,28,21.60
2011,07,24,10,29,21.60
2011,07,24,10,30,21.60
2011,07,24,10,31,21.60
2011,07,24,10,32,21.60
2011,07,24,10,33,21.50
2011,07,24,10,34,21.40
2011,07,24,10,35,21.30
2011,07,24,10,36,21.30
2011,07,24,10,37,21.40
2011,07,24,10,38,21.40
2011,07,24,10,39,21.50
2011,07,24,10,40,21.60
2011,07,24,10,41,21.60
2011,07,24,10,42,21.60
2011,07,24,10,43,21.60
2011,07,24,10,44,21.60
2011,07,24,10,45,21.60
2011,07,24,10,46,21.60
2011,07,24,10,47,21.60
2011,07,24,10,48,21.60
2011,07,24,10,49,21.70
2011,07,24,10,50,21.70
2011,07,24,10,51,21.70
2011,07,24,10,52,21.70
2011,07,24,10,53,21.60
2011,07,24,10,54,21.60
2011,07,24,10,55,21.60
2011,07,24,10,56,21.40
2011,07,24,10,57,21.40
2011,07,24,10,58,21.30
2011,07,24,10,59,21.30
2011,07,24,11,00,21.30
2011,07,24,11,01,21.30
2011,07,24,11,02,21.30
2011,07,24,11,03,21.30
2011,07,24,11,04,21.30
2011,07,24,11,05,21.20
2011,07,24,11,06,21.20
2011,07,24,11,07,21.20
2011,07,24,11,08,21.20
2011,07,24,11,09,21.20
2011,07,24,11,10,21.20
2011,07,24,11,11,21.20
2011,07,24,11,12,21.20
2011,07,24,11,13,21.20
2011,07,24,11,14,21.30
2011,07,24,11,15,21.30
2011,07,24,11,16,21.40
2011,07,24,11,17,21.50
2011,07,24,11,18,21.60
2011,07,24,11,19,21.60
2011,07,24,11,20,21.60
2011,07,24,11,21,21.70
2011,07,24,11,22,21.70
2011,07,24,11,23,21.80
2011,07,24,11,24,21.80
2011,07,24,11,25,21.90
2011,07,24,11,26,21.90
2011,07,24,11,27,22.00
2011,07,24,11,28,22.10
2011,07,24,11,29,22.10
2011,07,24,11,30,22.10
2011,07,24,11,31,22.10
2011,07,24,11,32,22.20
2011,07,24,11,33,22.20
2011,07,24,11,34,22.20
2011,07,24,11,35,22.20
2011,07,24,11,36,22.20
2011,07,24,11,37,22.20
2011,07,24,11,38,22.20
2011,07,24,11,39,22.20
2011,07,24,11,40,22.30
2011,07,24,11,41,22.30
2011,07,24,11,42,22.30
2011,07,24,11,43,22.30
2011,07,24,11,44,22.40
2011,07,24,11,45,22.40
2011,07,24,11,46,22.40
2011,07,24,11,47,22.40
2011,07,24,11,48,22.40
2011,07,24,11,49,22.50
2011,07,24,11,50,22.60
2011,07,24,11,51,22.60
2011,07,24,11,52,22.70
2011,07,24,11,53,22.80
2011,07,24,11,54,22.80
2011,07,24,11,55,22.80
2011,07,24,11,56,22.80
2011,07,24,11,57,22.80
2011,07,24,11,58,22.90
2011,07,24,11,59,22.90
2011,07,24,12,00,22.90
2011,07,24,12,01,22.90
2011,07,24,12,02,22.90
2011,07,24,12,03,22.80
2011,07,24,12,04,22.80
2011,07,24,12,05,22.80
2011,07,24,12,06,22.80
2011,07,24,12,07,22.90
2011,07,24,12,08,22.90
2011,07,24,12,09,23.00
2011,07,24,12,10,23.20
2011,07,24,12,11,23.30
2011,07,24,12,12,23.50
2011,07,24,12,13,23.60
2011,07,24,12,14,23.70
2011,07,24,12,15,23.70
2011,07,24,12,16,23.70
2011,07,24,12,17,23.80
2011,07,24,12,18,23.80
2011,07,24,12,19,23.70
2011,07,24,12,20,23.70
2011,07,24,12,21,23.70
2011,07,24,12,22,23.70
2011,07,24,12,23,23.70
2011,07,24,12,24,23.70
2011,07,24,12,25,23.70
2011,07,24,12,26,23.70
2011,07,24,12,27,23.80
2011,07,24,12,28,23.80
2011,07,24,12,29,23.80
2011,07,24,12,30,23.90
2011,07,24,12,31,23.90
2011,07,24,12,32,23.90
2011,07,24,12,33,23.90
2011,07,24,12,34,23.80
2011,07,24,12,35,23.80
2011,07,24,12,36,23.90
2011,07,24,12,37,24.00
2011,07,24,12,38,24.10
2011,07,24,12,39,24.10
2011,07,24,12,40,24.10
2011,07,24,12,41,24.10
2011,07,24,12,42,24.20
2011,07,24,12,43,24.20
2011,07,24,12,44,24.20
2011,07,24,12,45,24.20
2011,07,24,12,46,24.30
2011,07,24,12,47,24.40
2011,07,24,12,48,24.40
2011,07,24,12,49,24.40
2011,07,24,12,50,24.50
2011,07,24,12,51,24.50
2011,07,24,12,52,24.60
2011,07,24,12,53,24.60
2011,07,24,12,54,24.60
2011,07,24,12,55,24.60
2011,07,24,12,56,24.50
2011,07,24,12,57,24.40
2011,07,24,12,58,24.30
2011,07,24,12,59,24.30
2011,07,24,13,00,24.20
2011,07,24,13,01,24.20
2011,07,24,13,02,24.10
2011,07,24,13,03,24.10
2011,07,24,13,04,24.10
2011,07,24,13,05,24.10
2011,07,24,13,06,24.10
2011,07,24,13,07,24.10
2011,07,24,13,08,24.20
2011,07,24,13,09,24.30
2011,07,24,13,10,24.40
2011,07,24,13,11,24.50
2011,07,24,13,12,24.50
2011,07,24,13,13,24.60
2011,07,24,13,14,24.60
2011,07,24,13,15,24.70
2011,07,24,13,16,24.70
2011,07,24,13,17,24.70
2011,07,24,13,18,24.70
2011,07,24,13,19,24.80
2011,07,24,13,20,24.80
2011,07,24,13,21,24.80
2011,07,24,13,22,24.90
2011,07,24,13,23,24.90
2011,07,24,13,24,24.90
2011,07,24,13,25,24.90
2011,07,24,13,26,24.90
2011,07,24,13,27,24.80
2011,07,24,13,28,24.80
2011,07,24,13,29,24.70
2011,07,24,13,30,24.70
2011,07,24,13,31,24.60
2011,07,24,13,32,24.60
2011,07,24,13,33,24.60
2011,07,24,13,34,24.70
2011,07,24,13,35,24.70
2011,07,24,13,36,24.70
2011,07,24,13,37,24.80
2011,07,24,13,38,24.80
2011,07,24,13,39,24.80
2011,07,24,13,40,24.80
2011,07,24,13,41,24.80
2011,07,24,13,42,24.80
2011,07,24,13,43,24.80
2011,07,24,13,44,24.90
2011,07,24,13,45,24.90
2011,07,24,13,46,24.90
2011,07,24,13,47,25.00
2011,07,24,13,48,25.00
2011,07,24,13,49,25.10
2011,07,24,13,50,25.20
2011,07,24,13,51,25.20
2011,07,24,13,52,25.30
2011,07,24,13,53,25.30
2011,07,24,13,54,25.40
2011,07,24,13,55,25.40
2011,07,24,13,56,25.40
2011,07,24,13,57,25.40
2011,07,24,13,58,25.40
2011,07,24,13,59,25.30
2011,07,24,14,00,25.20
2011,07,24,14,01,25.20
2011,07,24,14,02,25.10
2011,07,24,14,03,25.10
2011,07,24,14,04,25.10
2011,07,24,14,05,25.00
2011,07,24,14,06,25.10
2011,07,24,14,07,25.10
2011,07,24,14,08,25.10
2011,07,24,14,09,25.10
2011,07,24,14,10,25.20
2011,07,24,14,11,25.20
2011,07,24,14,12,25.30
2011,07,24,14,13,25.30
2011,07,24,14,14,25.30
2011,07,24,14,15,25.40
2011,07,24,14,16,25.40
2011,07,24,14,17,25.40
2011,07,24,14,18,25.50
2011,07,24,14,19,25.60
2011,07,24,14,20,25.60
2011,07,24,14,21,25.70
2011,07,24,14,22,25.70
2011,07,24,14,23,25.70
2011,07,24,14,24,25.70
2011,07,24,14,25,25.70
2011,07,24,14,26,25.70
2011,07,24,14,27,25.70
2011,07,24,14,28,25.70
2011,07,24,14,29,25.80
2011,07,24,14,30,25.80
2011,07,24,14,31,25.80
2011,07,24,14,32,25.80
2011,07,24,14,33,25.70
2011,07,24,14,34,25.70
2011,07,24,14,35,25.70
2011,07,24,14,36,25.70
2011,07,24,14,37,25.80
2011,07,24,14,38,25.80
2011,07,24,14,39,25.80
2011,07,24,14,40,25.90
2011,07,24,14,41,25.90
2011,07,24,14,42,25.90
2011,07,24,14,43,25.90
2011,07,24,14,44,25.80
2011,07,24,14,45,25.70
2011,07,24,14,46,25.70
2011,07,24,14,47,25.70
2011,07,24,14,48,25.80
2011,07,24,14,49,25.80
2011,07,24,14,50,25.90
2011,07,24,14,51,25.90
2011,07,24,14,52,26.00
2011,07,24,14,53,26.10
2011,07,24,14,54,26.10
2011,07,24,14,55,26.20
2011,07,24,14,56,26.20
2011,07,24,14,57,26.20
2011,07,24,14,58,26.20
2011,07,24,14,59,26.20
2011,07,24,15,00,26.20
2011,07,24,15,01,26.30
2011,07,24,15,02,26.40
2011,07,24,15,03,26.40
2011,07,24,15,04,26.60
2011,07,24,15,05,26.60
2011,07,24,15,06,26.60
2011,07,24,15,07,26.50
2011,07,24,15,08,26.40
2011,07,24,15,09,26.40
2011,07,24,15,10,26.40
2011,07,24,15,11,26.40
2011,07,24,15,12,26.40
2011,07,24,15,13,26.40
2011,07,24,15,14,26.40
2011,07,24,15,15,26.40
2011,07,24,15,16,26.40
2011,07,24,15,17,26.50
2011,07,24,15,18,26.60
2011,07,24,15,19,26.70
2011,07,24,15,20,26.80
2011,07,24,15,21,26.80
2011,07,24,15,22,26.90
2011,07,24,15,23,26.90
2011,07,24,15,24,26.90
2011,07,24,15,25,26.90
2011,07,24,15,26,27.00
2011,07,24,15,27,27.10
2011,07,24,15,28,27.10
2011,07,24,15,29,27.10
2011,07,24,15,30,27.20
2011,07,24,15,31,27.30
2011,07,24,15,32,27.20
2011,07,24,15,33,27.20
2011,07,24,15,34,27.20
2011,07,24,15,35,27.10
2011,07,24,15,36,27.00
2011,07,24,15,37,26.70
2011,07,24,15,38,26.50
2011,07,24,15,39,26.30
2011,07,24,15,40,26.20
2011,07,24,15,41,26.10
2011,07,24,15,42,25.90
2011,07,24,15,43,25.80
2011,07,24,15,44,25.70
2011,07,24,15,45,25.60
2011,07,24,15,46,25.60
2011,07,24,15,47,25.50
2011,07,24,15,48,25.50
2011,07,24,15,49,25.50
2011,07,24,15,50,25.50
2011,07,24,15,51,25.50
2011,07,24,15,52,25.60
2011,07,24,15,53,25.60
2011,07,24,15,54,25.70
2011,07,24,15,55,25.70
2011,07,24,15,56,25.70
2011,07,24,15,57,25.80
2011,07,24,15,58,25.90
2011,07,24,15,59,25.90
2011,07,24,16,00,25.90
2011,07,24,16,01,25.90
2011,07,24,16,02,25.90
2011,07,24,16,03,25.90
2011,07,24,16,04,25.80
2011,07,24,16,05,25.60
2011,07,24,16,06,25.50
2011,07,24,16,07,25.40
2011,07,24,16,08,25.50
2011,07,24,16,09,25.40
2011,07,24,16,10,25.40
2011,07,24,16,11,25.30
2011,07,24,16,12,25.30
2011,07,24,16,13,25.30
2011,07,24,16,14,25.30
2011,07,24,16,15,25.30
2011,07,24,16,16,25.40
2011,07,24,16,17,25.40
2011,07,24,16,18,25.40
2011,07,24,16,19,25.30
2011,07,24,16,20,25.20
2011,07,24,16,21,25.20
2011,07,24,16,22,25.20
2011,07,24,16,23,25.20
2011,07,24,16,24,25.30
2011,07,24,16,25,25.30
2011,07,24,16,26,25.40
2011,07,24,16,27,25.30
2011,07,24,16,28,25.30
2011,07,24,16,29,25.40
2011,07,24,16,30,25.40
2011,07,24,16,31,25.30
2011,07,24,16,32,25.30
2011,07,24,16,33,25.30
2011,07,24,16,34,25.30
2011,07,24,16,35,25.40
2011,07,24,16,36,25.50
2011,07,24,16,37,25.60
2011,07,24,16,38,25.70
2011,07,24,16,39,25.80
2011,07,24,16,40,25.90
2011,07,24,16,41,26.00
2011,07,24,16,42,26.10
2011,07,24,16,43,26.10
2011,07,24,16,44,26.20
2011,07,24,16,45,26.20
2011,07,24,16,46,26.30
2011,07,24,16,47,26.40
2011,07,24,16,48,26.40
2011,07,24,16,49,26.40
2011,07,24,16,50,26.50
2011,07,24,16,51,26.50
2011,07,24,16,52,26.30
2011,07,24,16,53,26.10
2011,07,24,16,54,26.00
2011,07,24,16,55,25.90
2011,07,24,16,56,25.80
2011,07,24,16,57,25.70
2011,07,24,16,58,25.60
2011,07,24,16,59,25.60
2011,07,24,17,00,25.60
2011,07,24,17,01,25.60
2011,07,24,17,02,25.60
2011,07,24,17,03,25.70
2011,07,24,17,04,25.80
2011,07,24,17,05,25.90
2011,07,24,17,06,25.90
2011,07,24,17,07,26.10
2011,07,24,17,08,26.30
2011,07,24,17,09,26.40
2011,07,24,17,10,26.40
2011,07,24,17,11,26.30
2011,07,24,17,12,26.30
2011,07,24,17,13,26.30
2011,07,24,17,14,26.40
2011,07,24,17,15,26.50
2011,07,24,17,16,26.60
2011,07,24,17,17,26.60
2011,07,24,17,18,26.50
2011,07,24,17,19,26.40